Milk River, Alberta

8:08 PM MDT on August 25, 2016 (GMT -0600)
Milk River

Weather History for 71244 - January, 2014

Change the Weather History Date:

Monday, January 27, 2014

  Actual Average Record
Temperature  
Mean Temperature 10 °F -  
Max Temperature 18 °F - - ()
Min Temperature 1 °F - - ()
Degree Days  
Heating Degree Days 56    
Moisture  
Dew Point 2 °F    
Average Humidity 78    
Maximum Humidity 87    
Minimum Humidity 50    
Precipitation  
Precipitation 0.01 in - - ()
Sea Level Pressure  
Sea Level Pressure 30.49 in    
Wind  
Wind Speed 6 mph ()    
Max Wind Speed 15 mph    
Max Gust Speed -    
T = Trace of Precipitation, MM = Missing Value Source: Averaged Metar Reports

Daily Weather History Graph

Daily Weather History Graph

Search for Another Location

Airport or City:

Trip Planner

Search our weather history database for the weather conditions in past years. The results will help you decide how hot, cold, wet, or windy it might be!

Date:

Astronomy

Jan. 27, 2014 Rise Set
Actual Time 8:05 AM MST 5:17 PM MST
Civil Twilight 7:30 AM MST 5:51 PM MST
Nautical Twilight 6:52 AM MST 6:30 PM MST
Astronomical Twilight 6:14 AM MST 7:07 PM MST
Moon 4:54 AM MST (1/27) 2:02 PM MST (1/27)
Length of Visible Light 10h 21m
Length of Day
9h 11m
Waning Crescent, 14% of the Moon is Illuminated
Jan 27
Waning Crescent
Jan 30
New
Feb 6
First Quarter
Feb 14
Full
Feb 22
Last Quarter

Hourly Weather History & Observations

Time (MST) Temp. Windchill Dew Point Humidity Pressure Visibility Wind Dir Wind Speed Gust Speed Precip Events Conditions
12:00 AM 6.4 °F -3.9 °F 3.2 °F 87% 30.47 in - WNW 5.8 mph - N/A   Unknown
1:00 AM 5.7 °F -3.2 °F 2.1 °F 85% 30.46 in - NW 4.6 mph - N/A   Unknown
2:00 AM 3.0 °F -4.4 °F -0.6 °F 85% 30.46 in - NW 3.5 mph - N/A   Unknown
3:00 AM 2.8 °F - -0.4 °F 86% 30.47 in - WNW 2.3 mph - N/A   Unknown
4:00 AM 2.5 °F -7.0 °F -0.9 °F 86% 30.46 in - WNW 4.6 mph - 0.01 in   Unknown
5:00 AM 2 °F - -1 °F 79% 30.46 in - NNW 3.5 mph - -  
5:00 AM 4.1 °F -3.2 °F 0.5 °F 85% 30.46 in - NNW 3.5 mph - N/A   Unknown
6:00 AM 1.9 °F -5.6 °F -2.2 °F 83% 30.47 in - WNW 3.5 mph - N/A   Unknown
7:00 AM 1.8 °F -12.0 °F -2.2 °F 83% 30.47 in - WNW 8.1 mph - N/A   Unknown
8:00 AM 1.6 °F -11.0 °F -2.6 °F 83% 30.48 in - WNW 6.9 mph - N/A   Unknown
9:00 AM 5.9 °F -4.5 °F 0.5 °F 78% 30.49 in - WNW 5.8 mph - N/A   Unknown
10:00 AM 9.9 °F 1.6 °F 4.6 °F 79% 30.50 in - WNW 4.6 mph - N/A   Unknown
11:00 AM 14 °F - 10 °F 75% 30.50 in - North 12.7 mph - -  
11:00 AM 14.4 °F 0.2 °F 9.7 °F 82% 30.50 in - North 12.7 mph - N/A   Unknown
12:00 PM 15.6 °F 1.2 °F 7.9 °F 72% 30.51 in - North 13.8 mph - N/A   Unknown
1:00 PM 16.7 °F 2.6 °F 7.7 °F 68% 30.50 in - NNW 13.8 mph - N/A   Unknown
2:00 PM 17.1 °F 2.5 °F 6.3 °F 63% 30.51 in - NNW 15.0 mph - N/A   Unknown
3:00 PM 17.8 °F 4.0 °F 6.3 °F 61% 30.50 in - NNW 13.8 mph - N/A   Unknown
4:00 PM 16.9 °F 3.4 °F 4.6 °F 59% 30.50 in - NNW 12.7 mph - N/A   Unknown
5:00 PM 14 °F - 4 °F 50% 30.52 in - North 6.9 mph - -  
5:00 PM 13.6 °F 3.5 °F 3.7 °F 65% 30.52 in - North 6.9 mph - N/A   Unknown
6:00 PM 7.2 °F -1.5 °F 2.5 °F 81% 30.53 in - North 4.6 mph - N/A   Unknown
7:00 PM 4.6 °F -4.5 °F 1.4 °F 86% 30.54 in - NNE 4.6 mph - N/A   Unknown
8:00 PM 4.8 °F - 1.2 °F 85% 30.54 in - NW 2.3 mph - N/A   Unknown
9:00 PM 3.7 °F - -0.0 °F 84% 30.53 in - WNW 1.2 mph - N/A   Unknown
10:00 PM 1.9 °F - -1.7 °F 85% 30.50 in - WSW 2.3 mph - N/A   Unknown
11:00 PM 1 °F - -2 °F 79% 30.48 in - WSW 2.3 mph - -  
11:00 PM 1.2 °F - -2.2 °F 86% 30.48 in - WSW 2.3 mph - N/A   Unknown